Probability
0 0 0 0 0 0 0 0 0 0 0 0 0 0 0 0 0 0 0 0 0 0 0 0 0 0 0 0 0 0 0 0 0 0 0 0 0 0 0 0 0 0 0
0 0 0 0 0 0 0 0 0 0 0 0 0 0 0 0 0 0 0 0 0 0 0 0 0 0 0 0 0 0 0 0 0 0 0 0 0 0 0 0 0 0 0
0 0 0 0 0 0 0 0 0 0 0 0 0 0 0 0 0 0 0 0 0 0 0 0 0 0 0 0 0 0 0 0 0 0 0 0 0 0 0 0 0 0 0
0 0 0 0 0 0 0 0 0 0 0 0 0 0 0 0 0 0 0 0 0 0 0 0 0 0 0 0 0 0 0 0 0 0 0 0 0 0 0 0 0 0 0
0 0 0 0 0 0 0 0 0 0 0 0 0 0 0 0 0 0 0 0 0 0 0 0 0 0 0 0 0 0 0 0 0 0 0 0 0 0 0 0 0 0 0
0 0 0 0 0 0 0 0 0 0 0 0 0 0 0 0 0 0 0 0 0 0 0 0 0 0 0 0 0 0 0 0 0 0 0 0 0 0 0 0 0 0 0
0 0 0 0 0 0 0 0 0 0 0 0 0 0 0 0 0 0 0 0 0 0 0 0 0 0 0 0 0 0 0 0 0 0 0 0 0 0 0 0 0 0 0
0 0 0 0 0 0 0 0 0 0 0 0 0 0 0 0 0 0 0 0 0 0 0 0 0 0 0 0 0 0 0 0 0 0 0 0 0 0 0 0 0 0 0
0 0 0 0 0 0 0 0 0 0 0 0 0 0 0 0 0 0 0 0 0 0 0 0 0 0 0 0 0 0 0 0 0 0 0 0 0 0 0 0 0 0 0
0 0 0 0 0 0 0 0 0 0 0 0 0 0 0 0 0 0 0 0 0 0 0 0 0 0 0 0 0 0 0 0 0 0 0 0 0 0 0 0 0 0 0
0 0 0 0 0 0 0 0 0 0 0 0 0 0 0 0 0 0 0 0 0 0 0 0 0 0 0 0 0 0 0 0 0 0 0 0 0 0 0 0 0 0 0
0 0 0 0 0 0 0 0 0 0 0 0 0 0 0 0 0 0 0 0 0 0 0 0 0 0 0 0 0 0 0 0 0 0 0 0 0 0 0 0 0 0 0
0 0 0 0 0 0 0 0 0 0 0 0 0 0 0 0 0 0 0 0 0 0 0 0 0 0 0 0 0 0 0 0 0 0 0 0 0 0 0 0 0 0 0
0 0 0 0 0 0 0 0 0 0 0 0 0 0 0 0 0 0 0 0 0 0 0 0 0 0 0 0 0 0 0 0 0 0 0 0 0 0 0 0 0 0 0
0 0 0 0 0 0 0 0 0 0 0 0 0 0 0 0 0 0 0 0 0 0 0 0 0 0 0 0 0 0 0 0 0 0 0 0 0 0 0 0 0 0 0
0 0 0 0 0 0 0 0 0 0 0 0 0 0 0 0 0 0 0 0 0 0 0 0 0 0 0 0 0 0 0 0 0 0 0 0 0 0 0 0 0 0 0
0 0 0 0 0 0 0 0 0 0 0 0 0 0 0 0 0 0 0 0 0 0 0 0 0 0 0 0 0 0 0 0 0 0 0 0 0 0 0 0 0 0 0
0 0 0 0 0 0 0 0 0 0 0 0 0 0 0 0 0 0 0 0 0 0 0 0 0 0 0 0 0 0 0 0 0 0 0 0 0 0 0 0 0 0 0
0 0 0 0 0 0 0 0 0 0 0 0 0 0 0 0 0 0 0 0 0 0 0 0 0 0 0 0 0 0 0 0 0 0 0 0 0 0 0 0 0 0 0
0 0 0 0 0 0 0 0 0 0 0 0 0 0 0 0 0 0 0 0 0 0 0 0 0 0 0 0 0 0 0 0 0 0 0 0 0 0 0 0 0 0 0
0 0 0 0 0 0 0 0 0 0 0 0 0 0 0 0 0 0 0 0 0 0 0 0 0 0 0 0 0 0 0 0 0 0 0 0 0 0 0 0 0 0 0
0 0 0 0 0 0 0 0 0 0 0 0 0 0 0 0 0 0 0 0 0 0 0 0 0 0 0 0 0 0 0 0 0 0 0 0 0 0 0 0 0 0 0
0 0 0 0 0 0 0 0 0 0 0 0 0 0 0 0 0 0 0 0 0 0 0 0 0 0 0 0 0 0 0 0 0 0 0 0 0 0 0 0 0 0 0
0 0 0 0 0 0 0 0 0 0 0 0 0 0 0 0 0 0 0 0 0 0 0 0 0 0 0 0 0 0 0 0 0 0 0 0 0 0 0 0 0 0 0
0 0 0 0 0 0 0 0 0 0 0 0 0 0 0 0 0 0 0 0 0 0 0 0 0 0 0 0 0 0 0 0 0 0 0 0 0 0 0 0 0 0 0
0 0 0 0 0 0 0 0 0 0 0 0 0 0 0 0 0 0 0 0 0 0 0 0 0 0 0 0 0 0 0 0 0 0 0 0 0 0 0 0 0 0 0
Wind_Speed
5 4 4 3 2 1 1 0 1 1 1 1 2 2 2 2 2 2 2 2 3 3 4 4 4 4 3 3 2 2 1 1 2 1 1 3 4 4 4 5 5 5 6
5 4 4 3 2 2 1 1 1 1 1 1 1 2 2 3 3 3 4 4 4 5 5 5 5 4 5 4 3 3 2 2 0 1 1 2 3 4 4 4 4 4 5
5 5 4 3 3 2 2 1 1 1 2 2 2 2 3 3 4 4 4 5 6 6 6 6 5 5 5 4 4 3 3 2 2 2 2 1 2 3 3 3 4 3 4
6 5 5 4 3 3 2 2 2 2 2 3 3 3 3 4 4 4 5 6 6 6 6 6 6 6 5 5 4 4 3 3 3 2 2 1 1 2 2 2 2 2 3
7 6 5 4 4 3 3 3 3 3 3 3 3 3 3 3 3 4 5 5 6 6 6 6 7 8 8 6 4 4 3 2 2 2 1 1 1 1 2 2 2 2 1
7 6 6 5 5 4 4 4 4 4 3 3 3 3 3 3 6 5 4 5 5 5 5 5 5 7 8 9 9 9 7 4 2 1 0 0 1 1 2 2 3 3 2
8 7 7 6 6 5 5 5 4 4 4 4 4 4 4 6 7 7 6 4 5 4 4 3 3 4 5 4 6 6 7 8 5 2 1 1 1 2 2 2 2 3 3
8 8 7 7 6 6 6 5 5 4 4 4 3 3 4 5 6 7 7 4 4 4 3 3 3 3 3 3 3 3 3 4 4 3 2 2 2 2 2 2 3 4 4
9 8 8 8 7 7 6 6 5 4 4 4 3 3 3 4 5 6 4 3 3 3 2 1 1 1 2 1 1 1 1 2 3 3 4 3 3 3 4 3 3 3 3
9 8 8 8 8 7 7 6 5 5 4 4 3 3 3 3 4 5 4 2 2 2 1 1 1 2 0 1 1 2 2 1 1 1 1 1 1 0 2 3 2 3 3
8 8 8 8 7 7 7 6 6 5 5 4 4 4 4 4 4 6 6 3 2 2 2 2 1 1 2 2 3 3 2 3 3 3 2 2 2 1 1 1 1 2 3
8 8 8 8 7 6 7 6 6 6 6 6 5 5 5 5 6 6 8 7 5 3 3 2 2 3 3 3 3 3 2 3 3 3 3 3 2 2 1 2 3 3 4
9 9 8 8 7 7 7 7 7 6 6 6 5 5 5 5 6 9 9 9 8 5 3 4 4 4 4 3 4 4 4 3 3 4 4 3 2 2 3 3 4 4 6
10 9 8 8 8 8 7 7 7 7 7 7 6 6 5 5 5 5 6 6 7 6 4 5 6 5 5 5 4 4 4 4 4 4 4 3 3 3 4 3 4 4 5
9 9 8 8 8 8 8 8 8 8 8 7 6 6 6 6 7 10 7 6 5 5 4 4 4 4 5 4 4 4 4 4 5 4 4 4 4 4 4 3 4 4 5
9 9 8 7 7 7 7 7 11 11 13 15 12 8 7 8 7 10 12 12 11 10 7 5 5 5 5 5 5 5 5 5 5 4 5 5 5 4 5 4 5 5 6
9 8 7 7 8 8 8 8 7 9 14 16 17 16 14 11 12 12 12 12 12 12 8 7 6 6 5 5 5 5 5 5 4 5 5 5 5 5 5 5 5 6 7
9 9 8 8 8 8 8 8 7 7 7 7 12 17 17 16 15 14 13 10 9 9 8 7 7 6 6 6 6 6 5 5 5 6 6 6 6 6 6 6 6 7 7
8 7 7 7 7 7 7 7 7 8 7 6 5 8 14 15 15 15 14 9 8 8 8 8 7 7 6 6 6 6 6 6 6 6 6 6 6 6 7 7 7 10 9
7 9 8 6 6 7 7 7 7 7 7 7 7 6 6 8 8 9 10 9 8 8 8 8 7 7 7 6 6 6 6 6 7 7 7 6 6 7 8 9 8 8 8
5 6 10 7 6 7 7 7 7 7 7 7 7 8 11 8 8 9 8 9 9 9 8 8 7 7 7 6 6 7 8 7 7 7 6 6 7 7 7 8 8 8 8
4 4 5 6 6 6 6 6 6 7 8 8 7 7 14 9 7 7 8 8 8 8 7 7 7 7 7 7 7 7 7 8 7 7 7 7 7 7 7 8 8 8 9
4 4 4 5 5 7 7 6 6 7 7 7 6 6 7 8 8 8 8 7 7 7 7 7 7 7 6 6 7 7 8 8 7 7 7 7 7 7 8 9 10 10 10
3 4 4 4 4 5 5 6 6 6 7 6 6 7 7 7 8 8 8 7 7 7 7 7 7 9 10 8 7 7 8 8 7 7 10 9 9 8 8 9 10 12 12
4 4 4 4 4 4 5 5 5 6 6 6 6 6 7 7 7 7 7 6 7 7 8 8 7 8 10 12 10 8 11 14 13 9 8 9 11 11 11 12 11 12 12
4 4 4 4 4 4 5 5 5 6 6 6 6 6 6 6 6 6 6 6 6 6 7 7 9 10 10 9 11 13 15 16 17 17 12 9 11 11 11 11 14 13 14
Wind_Direction
152 148 149 135 126 133 131 60 353 351 352 348 355 6 14 18 23 55 68 69 81 73 63 67 63 52 57 47 43 45 31 314 243 113 63 19 13 13 16 19 18 20 26
157 156 150 145 151 155 130 92 62 56 47 38 44 54 52 45 50 71 81 77 80 78 72 72 67 63 62 51 49 53 48 16 291 161 91 35 24 12 12 21 22 25 28
163 164 164 168 171 163 137 115 102 97 89 81 77 76 71 66 69 75 84 84 80 76 71 70 67 69 66 58 53 54 49 45 37 116 101 56 33 13 8 19 25 25 29
171 174 179 177 171 156 146 139 123 113 105 94 88 85 83 82 82 87 91 92 87 79 71 68 64 65 67 65 57 51 48 63 74 94 101 81 46 18 2 1 359 9 12
178 182 183 173 166 162 160 150 137 128 115 108 104 102 98 91 86 98 101 100 98 90 78 69 62 63 63 58 52 45 40 47 64 80 89 89 47 14 9 354 331 328 4
184 184 178 175 173 173 167 157 149 136 125 115 108 105 99 94 105 103 107 107 103 98 89 79 73 64 63 63 58 51 41 38 42 50 92 86 51 16 358 341 332 326 317
185 183 179 179 179 176 167 163 159 147 135 125 114 108 101 102 110 108 101 101 98 89 88 84 74 67 60 65 66 64 60 54 41 4 34 36 22 5 342 324 335 320 313
184 185 182 181 181 174 171 170 163 152 148 139 129 122 113 108 111 112 108 96 95 90 83 77 80 81 67 49 56 59 59 57 42 27 35 29 0 340 310 299 306 297 286
187 187 185 183 180 177 176 171 164 159 157 154 146 143 132 127 131 134 136 132 125 118 101 79 44 70 91 72 45 43 55 84 69 40 22 17 5 344 318 290 295 299 295
189 187 184 184 183 183 178 169 165 164 165 161 160 169 171 176 169 169 174 177 171 169 176 185 254 314 49 229 285 280 286 316 300 265 251 223 263 4 318 296 290 284 292
181 178 180 183 183 179 173 171 167 168 169 175 182 192 201 210 204 201 203 216 212 210 220 225 213 275 289 274 277 286 297 293 284 286 282 274 262 261 272 298 294 265 270
174 177 180 181 178 176 176 173 175 178 185 193 202 209 214 217 224 220 219 223 226 231 237 238 232 256 275 282 273 277 259 261 276 275 273 272 277 283 292 293 286 275 260
178 183 183 182 183 182 185 183 184 192 202 205 210 218 217 212 217 226 230 229 222 231 241 245 251 257 260 261 262 262 250 256 266 267 269 273 279 286 280 267 253 249 252
187 189 186 188 190 191 194 195 198 200 206 211 213 219 219 215 214 211 217 222 224 229 234 231 240 249 253 264 258 244 247 258 267 270 274 275 271 257 257 266 276 281 278
195 194 193 196 197 199 203 206 208 213 215 214 215 215 214 220 217 211 207 210 213 217 217 225 231 234 238 237 237 241 242 242 247 255 261 263 262 262 262 265 268 270 264
199 200 198 198 201 204 207 215 224 224 224 229 232 228 228 232 221 214 217 220 222 221 220 233 237 238 242 245 244 241 237 240 244 247 251 256 261 263 266 260 255 259 266
208 204 202 202 204 206 209 214 219 223 228 232 233 232 231 229 227 223 222 223 227 225 230 236 240 242 242 242 242 243 244 242 239 242 247 250 252 255 258 259 257 258 262
216 212 208 209 208 209 211 215 217 216 214 223 227 230 231 231 229 227 224 223 229 227 231 237 239 240 240 240 238 238 241 239 233 237 241 243 244 248 251 253 254 255 263
219 217 213 213 210 211 211 212 216 220 224 222 209 220 225 228 229 228 222 223 227 227 228 233 236 238 238 237 237 236 237 240 240 239 242 242 239 241 247 251 254 258 258
225 221 213 212 210 211 212 213 216 218 222 222 221 215 199 205 216 219 219 222 226 230 230 232 232 232 232 233 233 232 234 236 236 235 239 239 237 237 244 249 252 256 257
231 225 216 216 215 212 213 217 219 220 221 224 226 215 201 205 214 216 216 221 225 228 229 230 230 228 227 227 228 231 233 237 237 237 238 239 238 239 243 247 251 253 258
238 231 222 222 220 217 218 218 221 224 227 231 232 223 219 216 219 220 221 223 226 228 227 226 228 228 224 222 223 227 231 234 235 233 236 238 238 241 245 248 251 254 256
250 241 234 231 226 229 227 221 222 226 229 231 229 220 217 219 221 222 223 223 223 224 223 223 228 229 226 222 223 224 230 234 234 233 236 239 240 242 245 248 251 255 256
259 252 248 243 236 232 231 230 228 229 230 230 228 226 223 224 226 226 224 223 223 224 224 223 228 232 230 227 226 226 230 235 237 235 235 241 245 248 249 251 253 254 257
265 257 252 247 242 239 239 239 237 234 232 231 230 229 229 228 229 229 225 224 225 227 227 227 230 234 235 233 233 234 237 240 239 236 234 237 244 247 250 253 255 258 257
271 266 259 252 246 244 244 245 244 242 240 237 234 233 231 231 230 230 226 224 224 227 231 233 234 236 238 239 240 242 246 250 250 248 244 245 248 250 250 253 257 258 261